Regional Weather Roundup
Issued by NWS

Home | Current Version | Previous Version | Graphics & Text | Print | Product List | Glossary On
Versions: 1 2 3 4 5 6 7 8 9 10 11 12 13 14 15 16 17 18 19 20 21 22 23 24 25 26 27 28 29 30 31 32 33 34 35 36 37 38 39 40 41 42 43 44 45 46 47 48 49 50
000
ASUS43 KIND 022109
RWRIN

WEATHER ROUNDUP FOR INDIANA
NATIONAL WEATHER SERVICE INDIANAPOLIS IN
500 PM EDT TUE SEP 02 2014

NOTE: "FAIR" INDICATES FEW OR NO CLOUDS BELOW 12,000 FEET WITH NO
SIGNIFICANT WEATHER AND/OR OBSTRUCTIONS TO VISIBILITY.

* - STATION DOES NOT REPORT WEATHER SUCH AS PRECIPITATION OR FOG.

+ - STATION NOT QUALITY CONTROLLED BY THE NATIONAL WEATHER SERVICE.
    USE DATA WITH CAUTION...ESPECIALLY DEWPOINT AND RELATIVE
    HUMIDITY OBSERVATIONS.

INZ001>003-010>013-019-020-022200-
NORTHWEST INDIANA

CITY           SKY/WX    TMP DP  RH WIND       PRES   REMARKS
GARY /AIRPORT/ PTSUNNY   82  55  39 W9        29.90F
KNOX *+        MOSUNNY   80  62  53 W9        29.90F
LA PORTE +     RAIN      74  66  75 NW7       29.92S
MICHIGAN CITY+ SUNNY     79  61  53 NW3       29.92S
MONTICELLO +   PTSUNNY   78  70  74 SW8       29.91F
RENSSELAER +   MOSUNNY   81  70  69 W8        29.91F
VALPARAISO     MOSUNNY   80  64  58 SW10      29.91F

$$

LMZ046-743>745-022200-
SOUTHERN LAKE MICHIGAN

STATION/POSITION TIME  TEMP WIND        PRES
                       AIR  DIR/SP/G
                 (UTC) (F)  (DEG/KT/KT) (MB)
MICHIGAN CITY    2100   73   30/  6/  7   N/A

$$

INZ004-005-014>016-021>024-022200-
NORTH CENTRAL INDIANA

CITY           SKY/WX    TMP DP  RH WIND       PRES   REMARKS
ELKHART        MOSUNNY   77  64  65 SW6       29.92S
GOSHEN         LGT RAIN  74  66  76 W8        29.92S
LOGANSPORT +   PTSUNNY   79  64  61 SW9       29.93F
PERU/GRISSOM   PTSUNNY   77  71  83 SW10      29.92F
ROCHESTER +    PTSUNNY   82  68  61 W8        29.91F
SOUTH BEND     SUNNY     81  54  39 NW13      29.92S
WARSAW +       PTSUNNY   77  64  65 W7        29.91F

$$

INZ006>009-017-018-025>027-022200-
NORTHEAST INDIANA

CITY           SKY/WX    TMP DP  RH WIND       PRES   REMARKS
ANGOLA *+      SUNNY     81  64  57 W12       29.91S
AUBURN +       PTSUNNY   79  61  53 W8        29.92F
FORT WAYNE     PTSUNNY   77  68  73 SW10      29.92F
HUNTINGTON +   PTSUNNY   75  68  77 W9        29.92S

$$

INZ028-029-035-036-043>045-051>053-022200-
WEST CENTRAL INDIANA

CITY           SKY/WX    TMP DP  RH WIND       PRES   REMARKS
GREENCASTLE +  PTSUNNY   75  68  78 W3        29.95F
LAFAYETTE      CLOUDY    76  67  73 W6        29.92F
TERRE HAUTE    PTSUNNY   79  68  69 NW9       29.94F

$$

INZ030>032-037>040-046>048-054>057-064-065-022200-
CENTRAL INDIANA

CITY           SKY/WX    TMP DP  RH WIND       PRES   REMARKS
CP ATTERBURY + PTSUNNY   77  68  73 NW6       29.94F
FRANKFORT +    PTSUNNY   78  68  69 W8        29.95F
GREENWOOD *+   PTSUNNY   77  70  78 NW8       29.94
INDIANAPOLIS   PTSUNNY   76  66  71 W10       29.93F
-EAGLE CREEK   PTSUNNY   77  65  66 W6        29.93F
KOKOMO *+      PTSUNNY   79  66  65 W10       29.92F
MARION +       PTSUNNY   77  64  65 W9        29.93F HAZE
MT COMFORT *+  PTSUNNY   77  66  69 W12       29.94F
SHELBYVILLE    PTSUNNY   78  68  71 NW5       29.93F
ZIONSVILLE +   PTSUNNY   78  66  68 SW5       29.94F

$$

INZ033-034-041-042-049-050-058-059-022200-
EAST CENTRAL INDIANA

CITY           SKY/WX    TMP DP  RH WIND       PRES   REMARKS
MUNCIE         PTSUNNY   75  67  76 W8        29.94F

$$

INZ060-061-067>069-081>083-085>088-022200-
SOUTHWEST INDIANA

CITY           SKY/WX    TMP DP  RH WIND       PRES   REMARKS
EVANSVILLE     PTSUNNY   85  72  65 NW8       29.92F
WASHINGTON +   CLOUDY    78  72  80 NW8       29.94F

$$

INZ062-063-066-070>080-084-089>092-022200-
SOUTH CENTRAL AND SOUTHEAST INDIANA

CITY           SKY/WX    TMP DP  RH WIND       PRES   REMARKS
BEDFORD +      CLOUDY    77  68  73 NW3       29.94F
BLOOMINGTON    PTSUNNY   76  69  79 W7        29.94F

$$



USA.gov is the U.S. government's official web portal to all federal, state and local government web resources and services.